SCP
0 0 0 0 0 0 0 0 0 0 0 0 0 0 0 0 0 0 0 0 0 0 0 0 0 0 0 0 0 0 0 0 0 0 0 0 0 0 0 0 0 0 0 0 0 0 0
0 0 0 0 0 0 0 0 0 0 0 0 0 0 0 0 0 0 0 0 0 0 0 0 0 0 0 0 0 0 0 0 0 0 0 0 0 0 0 0 0 0 0 0 0 0 0
0 0 0 0 0 0 0 0 0 0 0 0 0 0 0 0 0 0 0 0 0 0 0 0 0 0 0 0 0 0 0 0 0 0 0 0 0 0 0 0 0 0 0 0 0 0 0
0 0 0 0 0 0 0 0 0 0 0 0 0 0 0 0 0 0 0 0 0 0 0 0 0 0 0 0 0 0 0 0 0 0 0 0 0 0 0 0 0 0 0 0 0 0 0
0 0 0 0 0 0 0 0 0 0 0 0 0 0 0 0 0 0 0 0 0 0 0 0 0 0 0 0 0 0 0 0 0 0 0 0 0 0 0 0 0 0 0 0 0 0 0
0 0 0 0 0 0 0 0 0 0 0 0 0 0 0 0 0 0 0 0 0 0 0 0 0 0 0 0 0 0 0 0 0 0 0 0 0 0 0 0 0 0 0 0 0 0 0
0 0 0 0 0 0 0 0 0 0 0 0 0 0 0 0 0 0 0 0 0 0 0 0 0 0 0 0 0 0 0 0 0 0 0 0 0 0 0 0 0 0 0 0 0 0 0
0 0 0 0 0 0 0 0 0 0 0 0 0 0 0 0 0 0 0 0 0 0 0 0 0 0 0 0 0 0 0 0 0 0 0 0 0 0 0 0 0 0 0 0 0 0 0
0 0 0 0 0 0 0 0 0 0 0 0 0 0 0 0 0 0 0 0 0 0 0 0 0 0 0 0 0 0 0 0 0 0 0 0 0 0 0 0 0 0 0 0 0 0 0
0 0 0 0 0 0 0 0 0 0 0 0 0 0 0 0 0 0 0 0 0 0 0 0 0 0 0 0 0 0 0 0 0 0 0 0 0 0 0 0 0 0 0 0 0 0 0
0 0 0 0 0 0 0 0 0 0 0 0 0 0 0 0 0 0 0 0 0 0 0 0 0 0 0 0 0 0 0 0 0 0 0 0 0 0 0 0 0 0 0 0 0 0 0
0 0 0 0 0 0 0 0 0 0 0 0 0 0 0 0 0 0 0 0 0 0 0 0 0 0 0 0 0 0 0 0 0 0 0 0 0 0 0 0 0 0 0 0 0 0 0
0 0 0 0 0 0 0 0 0 0 0 0 0 0 0 0 0 0 0 0 0 0 0 0 0 0 0 0 0 0 0 0 0 0 0 0 0 0 0 0 0 0 0 0 0 0 0
0 0 0 0 0 0 0 0 0 0 0 0 0 0 0 0 0 0 0 1 1 0 0 0 0 0 0 0 0 0 0 0 0 0 0 0 0 0 0 0 0 0 0 0 0 0 0
0 0 0 0 0 0 0 0 0 0 0 0 0 0 0 0 0 0 0 1 0 0 0 0 0 0 0 0 0 0 0 0 0 0 0 0 0 0 0 0 0 0 0 0 0 0 0
0 0 0 0 0 0 0 0 0 0 0 0 0 0 0 0 0 0 0 0 0 0 0 0 0 0 0 0 0 0 0 0 0 0 0 0 0 0 0 0 0 0 0 0 0 0 0
0 0 0 0 0 0 0 0 0 0 0 0 0 0 0 0 0 0 0 0 0 0 0 0 0 0 0 0 0 0 0 0 0 0 0 0 0 0 0 0 0 0 0 0 0 0 0
0 0 0 0 0 0 0 0 0 0 0 0 0 0 0 0 0 0 0 0 0 0 0 0 0 0 0 0 0 0 0 0 0 0 0 0 0 0 0 0 0 0 0 0 0 0 0
0 0 0 0 0 0 0 0 0 0 0 0 0 0 0 0 0 0 0 0 0 0 0 0 0 0 0 0 0 0 0 0 0 0 0 0 0 0 0 0 0 0 0 0 0 0 0
0 0 0 0 0 0 0 0 0 0 0 0 0 0 0 0 0 0 0 0 0 0 0 0 0 0 0 0 0 0 0 0 0 0 0 0 0 0 0 0 0 0 0 0 0 0 0
0 0 0 0 0 0 0 0 0 0 0 0 0 0 0 0 0 0 0 0 0 0 0 0 0 0 0 0 0 0 0 0 0 0 0 0 0 0 0 0 0 0 0 0 0 0 0
0 0 0 0 0 0 0 0 0 0 0 0 0 0 0 0 0 0 0 0 0 0 0 0 0 0 0 0 0 0 0 0 0 0 0 0 0 0 0 0 0 0 0 0 0 0 0
0 0 0 0 0 0 0 0 0 0 0 0 0 0 0 0 0 0 0 0 0 0 0 0 0 0 0 0 0 0 0 0 0 0 0 0 0 0 0 0 0 0 0 0 0 0 0
0 0 0 0 0 0 0 0 0 0 0 0 0 0 0 0 0 0 0 0 0 0 0 0 0 0 0 0 0 0 0 0 0 0 0 0 0 0 0 0 0 0 0 0 0 0 0
0 -0 0 0 0 0 0 0 0 0 0 0 0 0 0 0 0 0 0 0 0 0 0 0 0 0 0 0 0 0 0 0 0 0 0 0 0 0 0 0 0 0 0 0 0 0 0
0 0 0 0 0 0 0 0 0 0 0 0 0 0 0 0 0 0 0 0 0 0 0 0 0 0 0 0 0 0 0 0 0 0 0 0 0 0 0 0 0 0 0 0 0 0 0
0 0 0 -0 0 0 0 0 0 0 0 0 0 0 0 0 0 0 0 0 0 0 0 0 0 0 0 0 0 0 0 0 0 0 0 0 0 0 0 0 0 0 0 0 0 0 0
0 0 0 0 0 0 0 0 0 0 0 0 0 0 0 0 0 0 0 0 0 0 0 0 0 0 0 0 0 0 0 0 0 0 0 0 0 0 0 0 0 0 0 0 0 0 0
0 0 0 0 0 0 0 0 0 0 0 0 0 0 0 0 0 0 0 0 0 0 0 0 0 0 0 0 0 0 0 0 0 0 0 0 0 0 0 0 0 0 0 0 0 0 0
Wind_Speed_500mb
26 25 32 37 37 41 43 43 40 38 35 31 28 26 24 23 21 21 21 20 19 20 20 19 18 18 15 10 12 13 7 7 9 13 12 7 7 5 12 3 5 11 6 7 7 8 8
31 29 30 32 36 40 44 46 46 44 41 39 35 32 29 28 27 26 25 23 23 22 23 22 20 18 14 20 17 17 16 13 13 15 13 9 5 5 5 5 9 3 7 10 12 16 14
40 36 32 36 33 35 42 47 48 48 47 44 42 38 34 31 31 31 30 28 27 26 25 23 22 20 20 24 20 16 18 18 19 20 10 16 10 6 5 5 4 4 10 17 25 21 10
46 44 39 40 42 37 37 42 48 51 50 48 46 44 40 36 34 33 33 32 30 29 27 24 21 18 17 25 27 29 23 19 20 21 20 17 13 8 5 4 5 8 7 15 15 19 9
46 49 49 54 47 48 42 41 41 48 51 51 49 48 46 41 38 36 35 34 33 31 29 24 20 13 15 21 25 32 26 15 20 19 19 16 12 8 9 12 13 15 19 18 11 21 10
44 49 56 54 61 54 53 49 42 41 44 51 51 50 50 47 43 40 37 34 33 32 30 25 26 11 28 12 20 25 28 23 12 19 12 12 13 15 16 20 21 19 21 20 21 14 17
44 44 47 52 59 60 57 57 52 46 40 40 50 50 51 49 46 42 36 26 20 14 30 25 11 14 8 21 17 20 30 24 14 20 18 22 19 27 36 33 35 15 17 24 15 7 8
42 46 50 49 52 61 65 63 58 49 51 41 40 47 51 50 46 44 35 16 18 7 17 30 48 34 25 21 12 25 35 24 22 26 27 11 31 36 25 21 28 26 28 32 26 8 7
37 43 46 50 51 48 66 66 62 62 62 52 44 39 47 50 45 45 42 31 26 15 16 31 40 36 35 42 21 34 48 25 22 30 32 34 9 11 21 17 24 30 31 27 27 4 20
36 37 40 43 46 44 45 62 71 66 62 57 52 44 44 44 36 37 43 38 20 8 13 29 19 24 39 32 20 28 51 18 12 30 29 28 27 11 20 30 28 32 26 28 23 13 19
42 36 38 39 42 50 50 50 48 65 67 61 55 55 47 56 24 40 35 30 27 10 16 8 18 13 20 41 24 21 44 23 26 19 16 10 18 23 27 25 22 15 4 13 20 25 28
46 47 45 40 38 41 47 48 57 53 64 70 69 70 59 54 46 29 33 31 36 11 35 13 14 17 20 30 8 14 21 10 11 16 18 23 4 13 18 5 16 21 10 5 5 13 20
50 49 45 43 40 38 38 46 54 61 59 69 72 76 84 73 74 56 40 55 14 26 13 23 15 19 30 19 16 18 30 28 24 18 33 28 29 12 11 11 7 25 17 8 10 11 15
46 53 50 44 46 42 39 39 47 56 66 60 55 71 91 92 78 74 60 23 26 63 60 19 10 20 28 26 17 20 25 26 45 35 20 28 19 45 33 43 20 39 35 13 13 13 11
43 49 53 53 48 46 41 38 43 47 56 57 49 63 102 103 89 86 64 36 55 71 42 30 18 16 29 20 14 23 30 27 30 43 28 20 21 12 17 17 32 15 27 27 10 4 8
47 46 44 50 50 50 46 42 40 45 44 51 52 68 89 104 100 93 36 47 53 48 45 38 53 37 34 31 26 31 34 26 28 45 36 7 13 9 11 7 10 17 17 10 13 11 15
51 48 46 43 50 51 49 45 42 39 40 41 50 26 51 98 103 79 27 36 59 45 65 37 47 44 41 30 36 27 19 14 39 39 47 16 11 11 14 23 35 14 19 19 11 17 9
55 50 48 47 49 51 51 45 42 36 36 44 50 11 37 88 37 28 36 76 57 53 41 35 31 47 39 37 33 38 35 28 48 43 32 28 6 20 27 5 18 35 28 39 13 12 11
48 60 61 57 47 49 43 42 40 35 27 27 24 32 34 82 34 30 44 55 54 54 62 44 46 33 40 38 21 40 33 26 44 35 38 27 8 6 9 4 2 17 30 32 34 3 30
58 58 53 60 57 46 45 36 41 36 30 33 17 8 38 56 71 43 34 48 59 64 48 68 42 33 34 42 39 22 34 16 43 39 33 37 13 23 36 18 18 19 32 42 35 23 36
55 59 52 46 50 50 55 40 39 37 32 28 20 11 12 8 33 34 47 32 47 45 59 58 47 56 45 34 40 50 29 8 7 22 17 26 24 36 49 45 33 17 37 47 56 71 34
58 50 62 58 55 53 55 44 42 42 35 34 14 13 13 10 7 30 37 46 53 49 34 63 38 58 51 55 54 36 39 33 23 20 20 7 18 32 47 45 45 42 37 49 61 61 60
60 52 42 44 57 52 44 53 44 43 38 22 25 29 20 14 8 15 8 18 46 45 46 46 71 48 49 68 65 58 52 49 33 33 29 21 13 14 30 26 36 15 77 44 49 59 46
54 56 46 45 26 46 45 58 48 48 45 42 34 25 10 10 18 18 9 7 19 16 45 6 25 41 24 24 33 14 4 5 6 10 28 23 28 16 16 9 24 43 10 40 64 57 45
54 51 56 51 41 33 40 48 54 43 39 39 40 29 11 7 21 30 36 36 36 40 38 6 4 11 28 11 6 7 1 3 3 4 5 13 24 10 13 21 21 33 9 16 22 44 43
49 48 49 45 52 45 22 40 47 53 42 43 41 31 17 3 5 22 23 32 20 19 4 4 18 25 20 5 6 11 11 7 11 4 5 4 19 19 7 13 20 7 13 4 13 22 15
47 49 47 49 50 52 46 33 40 44 47 46 33 37 22 8 10 12 6 8 22 13 8 8 12 9 15 8 7 8 7 2 12 14 11 8 5 27 27 12 9 4 11 15 16 4 7
49 49 49 51 54 54 49 47 41 43 47 51 43 37 40 13 16 16 18 4 2 14 10 17 12 3 4 10 9 7 8 11 6 2 12 20 18 11 11 10 20 16 10 16 0 9 23
51 53 51 51 50 52 53 50 54 43 46 55 45 41 41 21 10 24 27 25 24 15 10 37 14 10 13 6 5 7 6 8 10 11 7 11 9 8 11 2 4 23 6 8 11 15 12
Wind_Direction_500mb
259 258 253 248 244 249 248 248 245 244 242 243 248 256 261 263 265 269 273 277 280 287 292 298 302 305 314 289 266 259 232 208 179 168 164 189 223 261 262 252 224 246 178 202 178 181 215
258 262 264 257 254 248 250 249 249 248 246 247 247 249 256 265 268 268 269 272 278 281 287 292 296 300 303 266 261 252 243 229 206 189 200 200 257 250 273 246 243 24 233 219 215 219 232
268 261 258 267 264 262 254 252 249 249 249 248 249 251 252 256 264 269 271 272 275 279 281 286 292 295 278 261 266 250 237 228 218 204 210 221 221 218 201 210 203 245 262 224 227 221 238
260 262 259 259 267 263 266 258 254 250 248 249 250 251 252 254 257 263 266 268 272 276 277 282 286 290 266 258 255 244 233 224 216 215 213 217 205 183 248 149 186 244 246 244 119 177 184
264 263 262 259 258 264 262 263 259 255 252 247 247 250 253 254 255 257 260 265 269 272 274 278 283 265 260 255 241 233 217 219 214 211 209 201 174 207 174 224 234 212 263 215 185 198 152
265 264 260 253 252 252 259 261 259 260 254 254 248 248 251 253 252 254 255 261 269 274 272 273 257 262 243 228 230 221 210 194 178 174 148 177 204 218 223 216 233 258 228 248 259 158 220
266 265 266 259 253 249 254 254 255 258 254 258 254 247 248 248 250 250 253 262 280 275 236 216 237 222 237 219 208 198 196 178 155 190 203 200 216 218 224 226 252 292 280 267 280 93 266
267 267 264 265 260 253 251 254 251 250 260 251 256 252 247 246 245 245 240 219 239 235 292 260 240 235 234 204 181 197 182 179 191 208 207 186 229 238 241 267 237 240 253 257 268 145 255
269 267 267 266 264 252 257 259 252 249 248 254 253 250 248 243 240 238 235 230 238 260 262 258 234 231 223 216 213 193 182 196 207 217 201 226 220 251 197 211 220 235 240 253 262 135 237
272 272 270 266 258 251 253 253 255 250 241 246 247 251 244 237 233 232 233 231 220 239 268 246 207 228 201 193 226 196 195 180 202 220 213 242 235 161 207 227 219 246 226 254 264 254 265
269 277 276 272 266 261 262 252 247 246 244 244 248 239 241 238 218 211 235 223 174 165 272 26 135 186 171 188 140 187 183 193 208 186 180 206 188 201 212 223 209 248 62 232 251 261 273
267 267 270 274 273 268 263 257 250 248 245 248 246 244 228 218 209 216 213 177 159 205 239 163 138 167 160 198 169 122 170 183 219 203 235 257 31 210 227 90 206 130 125 116 229 255 251
266 265 267 274 273 273 269 259 252 247 246 242 241 237 222 221 207 204 183 153 180 221 141 188 170 178 193 175 172 179 181 186 184 190 222 216 220 177 180 149 162 200 179 239 235 212 255
267 263 261 263 265 266 268 271 261 251 248 247 254 234 236 217 207 198 181 187 209 229 219 103 139 168 186 162 198 187 177 207 218 228 267 210 223 200 200 214 193 199 203 203 243 228 261
271 269 261 259 262 261 264 272 275 260 251 247 257 247 237 216 203 193 177 197 217 217 203 186 145 190 204 202 188 181 207 214 205 206 202 211 237 175 179 219 210 176 223 240 304 158 271
276 276 270 257 257 262 260 267 278 270 252 241 244 238 222 216 208 196 199 211 231 227 237 216 211 196 199 195 187 194 188 220 212 198 209 233 247 168 149 162 251 218 159 174 220 226 238
269 275 273 262 250 261 260 265 271 278 257 240 248 244 234 216 205 194 204 220 225 224 211 213 215 217 224 194 200 196 206 179 196 189 199 211 237 131 152 203 187 182 204 225 243 226 251
261 268 276 275 252 259 260 257 265 271 264 244 223 238 230 207 196 201 206 214 219 223 237 229 235 220 213 211 200 205 214 209 192 158 181 203 250 236 220 114 271 232 214 205 213 193 236
256 260 266 271 278 257 260 252 258 263 260 237 224 228 239 203 206 210 220 219 217 219 214 219 226 229 219 212 219 220 213 217 180 174 172 164 201 239 251 206 196 228 222 226 231 49 229
255 259 265 264 265 261 252 256 252 259 259 264 235 212 214 206 224 211 211 218 212 220 222 223 223 225 224 229 214 233 221 175 190 200 190 164 150 206 233 225 164 202 211 211 216 225 235
263 256 256 260 268 266 243 258 248 256 264 272 226 222 230 213 237 257 208 210 215 210 216 210 223 228 217 230 232 231 218 121 175 216 175 180 222 219 241 255 267 213 214 206 211 227 216
266 266 254 255 259 264 245 253 248 250 254 263 265 171 210 283 307 234 220 208 213 215 202 217 220 219 223 219 216 217 224 216 207 182 188 185 232 224 254 243 244 242 238 217 216 229 233
280 276 256 256 250 252 260 238 243 237 239 245 254 262 246 181 229 251 268 237 216 217 225 221 221 226 222 229 235 249 237 225 221 197 184 163 202 193 245 225 245 275 236 227 229 225 226
270 274 272 248 282 250 248 237 242 242 230 237 253 275 287 233 196 216 214 249 302 257 226 167 209 224 218 212 217 237 63 70 269 210 187 179 195 208 248 117 217 238 250 228 233 238 228
261 266 272 275 275 248 245 240 249 246 227 232 239 243 222 272 240 225 228 242 251 249 247 180 139 112 138 92 96 145 141 71 154 55 213 210 185 204 217 217 290 271 179 178 181 244 228
261 259 261 264 272 272 260 243 239 252 242 227 233 239 225 257 246 265 216 201 215 229 104 194 209 170 158 132 168 186 193 151 190 159 28 54 211 206 153 224 231 329 127 179 107 256 196
264 261 264 262 265 268 271 244 242 239 246 227 224 221 222 231 264 229 236 219 180 154 144 140 160 156 180 171 177 179 188 337 178 184 163 147 188 214 221 228 273 132 151 152 170 278 99
267 262 261 258 257 258 265 262 246 236 233 221 220 214 212 218 257 240 235 231 241 180 160 143 110 198 160 199 182 166 190 193 174 180 176 178 176 194 208 224 242 139 120 189 153 99 151
269 264 261 259 258 252 251 256 243 243 229 229 219 209 213 223 261 240 237 230 219 211 162 167 146 164 174 172 188 138 158 169 176 212 180 208 196 175 207 205 324 167 60 163 126 139 153
Wind_Speed_850mb
26 25 32 37 37 41 43 43 40 38 35 31 28 26 24 23 21 21 21 20 19 20 20 19 18 18 15 10 12 13 7 7 9 13 12 7 7 5 12 3 5 11 6 7 7 8 8
31 29 30 32 36 40 44 46 46 44 41 39 35 32 29 28 27 26 25 23 23 22 23 22 20 18 14 20 17 17 16 13 13 15 13 9 5 5 5 5 9 3 7 10 12 16 14
40 36 32 36 33 35 42 47 48 48 47 44 42 38 34 31 31 31 30 28 27 26 25 23 22 20 20 24 20 16 18 18 19 20 10 16 10 6 5 5 4 4 10 17 25 21 10
46 44 39 40 42 37 37 42 48 51 50 48 46 44 40 36 34 33 33 32 30 29 27 24 21 18 17 25 27 29 23 19 20 21 20 17 13 8 5 4 5 8 7 15 15 19 9
46 49 49 54 47 48 42 41 41 48 51 51 49 48 46 41 38 36 35 34 33 31 29 24 20 13 15 21 25 32 26 15 20 19 19 16 12 8 9 12 13 15 19 18 11 21 10
44 49 56 54 61 54 53 49 42 41 44 51 51 50 50 47 43 40 37 34 33 32 30 25 26 11 28 12 20 25 28 23 12 19 12 12 13 15 16 20 21 19 21 20 21 14 17
44 44 47 52 59 60 57 57 52 46 40 40 50 50 51 49 46 42 36 26 20 14 30 25 11 14 8 21 17 20 30 24 14 20 18 22 19 27 36 33 35 15 17 24 15 7 8
42 46 50 49 52 61 65 63 58 49 51 41 40 47 51 50 46 44 35 16 18 7 17 30 48 34 25 21 12 25 35 24 22 26 27 11 31 36 25 21 28 26 28 32 26 8 7
37 43 46 50 51 48 66 66 62 62 62 52 44 39 47 50 45 45 42 31 26 15 16 31 40 36 35 42 21 34 48 25 22 30 32 34 9 11 21 17 24 30 31 27 27 4 20
36 37 40 43 46 44 45 62 71 66 62 57 52 44 44 44 36 37 43 38 20 8 13 29 19 24 39 32 20 28 51 18 12 30 29 28 27 11 20 30 28 32 26 28 23 13 19
42 36 38 39 42 50 50 50 48 65 67 61 55 55 47 56 24 40 35 30 27 10 16 8 18 13 20 41 24 21 44 23 26 19 16 10 18 23 27 25 22 15 4 13 20 25 28
46 47 45 40 38 41 47 48 57 53 64 70 69 70 59 54 46 29 33 31 36 11 35 13 14 17 20 30 8 14 21 10 11 16 18 23 4 13 18 5 16 21 10 5 5 13 20
50 49 45 43 40 38 38 46 54 61 59 69 72 76 84 73 74 56 40 55 14 26 13 23 15 19 30 19 16 18 30 28 24 18 33 28 29 12 11 11 7 25 17 8 10 11 15
46 53 50 44 46 42 39 39 47 56 66 60 55 71 91 92 78 74 60 23 26 63 60 19 10 20 28 26 17 20 25 26 45 35 20 28 19 45 33 43 20 39 35 13 13 13 11
43 49 53 53 48 46 41 38 43 47 56 57 49 63 102 103 89 86 64 36 55 71 42 30 18 16 29 20 14 23 30 27 30 43 28 20 21 12 17 17 32 15 27 27 10 4 8
47 46 44 50 50 50 46 42 40 45 44 51 52 68 89 104 100 93 36 47 53 48 45 38 53 37 34 31 26 31 34 26 28 45 36 7 13 9 11 7 10 17 17 10 13 11 15
51 48 46 43 50 51 49 45 42 39 40 41 50 26 51 98 103 79 27 36 59 45 65 37 47 44 41 30 36 27 19 14 39 39 47 16 11 11 14 23 35 14 19 19 11 17 9
55 50 48 47 49 51 51 45 42 36 36 44 50 11 37 88 37 28 36 76 57 53 41 35 31 47 39 37 33 38 35 28 48 43 32 28 6 20 27 5 18 35 28 39 13 12 11
48 60 61 57 47 49 43 42 40 35 27 27 24 32 34 82 34 30 44 55 54 54 62 44 46 33 40 38 21 40 33 26 44 35 38 27 8 6 9 4 2 17 30 32 34 3 30
58 58 53 60 57 46 45 36 41 36 30 33 17 8 38 56 71 43 34 48 59 64 48 68 42 33 34 42 39 22 34 16 43 39 33 37 13 23 36 18 18 19 32 42 35 23 36
55 59 52 46 50 50 55 40 39 37 32 28 20 11 12 8 33 34 47 32 47 45 59 58 47 56 45 34 40 50 29 8 7 22 17 26 24 36 49 45 33 17 37 47 56 71 34
58 50 62 58 55 53 55 44 42 42 35 34 14 13 13 10 7 30 37 46 53 49 34 63 38 58 51 55 54 36 39 33 23 20 20 7 18 32 47 45 45 42 37 49 61 61 60
60 52 42 44 57 52 44 53 44 43 38 22 25 29 20 14 8 15 8 18 46 45 46 46 71 48 49 68 65 58 52 49 33 33 29 21 13 14 30 26 36 15 77 44 49 59 46
54 56 46 45 26 46 45 58 48 48 45 42 34 25 10 10 18 18 9 7 19 16 45 6 25 41 24 24 33 14 4 5 6 10 28 23 28 16 16 9 24 43 10 40 64 57 45
54 51 56 51 41 33 40 48 54 43 39 39 40 29 11 7 21 30 36 36 36 40 38 6 4 11 28 11 6 7 1 3 3 4 5 13 24 10 13 21 21 33 9 16 22 44 43
49 48 49 45 52 45 22 40 47 53 42 43 41 31 17 3 5 22 23 32 20 19 4 4 18 25 20 5 6 11 11 7 11 4 5 4 19 19 7 13 20 7 13 4 13 22 15
47 49 47 49 50 52 46 33 40 44 47 46 33 37 22 8 10 12 6 8 22 13 8 8 12 9 15 8 7 8 7 2 12 14 11 8 5 27 27 12 9 4 11 15 16 4 7
49 49 49 51 54 54 49 47 41 43 47 51 43 37 40 13 16 16 18 4 2 14 10 17 12 3 4 10 9 7 8 11 6 2 12 20 18 11 11 10 20 16 10 16 0 9 23
51 53 51 51 50 52 53 50 54 43 46 55 45 41 41 21 10 24 27 25 24 15 10 37 14 10 13 6 5 7 6 8 10 11 7 11 9 8 11 2 4 23 6 8 11 15 12
Wind_Direction_850mb
259 258 253 248 244 249 248 248 245 244 242 243 248 256 261 263 265 269 273 277 280 287 292 298 302 305 314 289 266 259 232 208 179 168 164 189 223 261 262 252 224 246 178 202 178 181 215
258 262 264 257 254 248 250 249 249 248 246 247 247 249 256 265 268 268 269 272 278 281 287 292 296 300 303 266 261 252 243 229 206 189 200 200 257 250 273 246 243 24 233 219 215 219 232
268 261 258 267 264 262 254 252 249 249 249 248 249 251 252 256 264 269 271 272 275 279 281 286 292 295 278 261 266 250 237 228 218 204 210 221 221 218 201 210 203 245 262 224 227 221 238
260 262 259 259 267 263 266 258 254 250 248 249 250 251 252 254 257 263 266 268 272 276 277 282 286 290 266 258 255 244 233 224 216 215 213 217 205 183 248 149 186 244 246 244 119 177 184
264 263 262 259 258 264 262 263 259 255 252 247 247 250 253 254 255 257 260 265 269 272 274 278 283 265 260 255 241 233 217 219 214 211 209 201 174 207 174 224 234 212 263 215 185 198 152
265 264 260 253 252 252 259 261 259 260 254 254 248 248 251 253 252 254 255 261 269 274 272 273 257 262 243 228 230 221 210 194 178 174 148 177 204 218 223 216 233 258 228 248 259 158 220
266 265 266 259 253 249 254 254 255 258 254 258 254 247 248 248 250 250 253 262 280 275 236 216 237 222 237 219 208 198 196 178 155 190 203 200 216 218 224 226 252 292 280 267 280 93 266
267 267 264 265 260 253 251 254 251 250 260 251 256 252 247 246 245 245 240 219 239 235 292 260 240 235 234 204 181 197 182 179 191 208 207 186 229 238 241 267 237 240 253 257 268 145 255
269 267 267 266 264 252 257 259 252 249 248 254 253 250 248 243 240 238 235 230 238 260 262 258 234 231 223 216 213 193 182 196 207 217 201 226 220 251 197 211 220 235 240 253 262 135 237
272 272 270 266 258 251 253 253 255 250 241 246 247 251 244 237 233 232 233 231 220 239 268 246 207 228 201 193 226 196 195 180 202 220 213 242 235 161 207 227 219 246 226 254 264 254 265
269 277 276 272 266 261 262 252 247 246 244 244 248 239 241 238 218 211 235 223 174 165 272 26 135 186 171 188 140 187 183 193 208 186 180 206 188 201 212 223 209 248 62 232 251 261 273
267 267 270 274 273 268 263 257 250 248 245 248 246 244 228 218 209 216 213 177 159 205 239 163 138 167 160 198 169 122 170 183 219 203 235 257 31 210 227 90 206 130 125 116 229 255 251
266 265 267 274 273 273 269 259 252 247 246 242 241 237 222 221 207 204 183 153 180 221 141 188 170 178 193 175 172 179 181 186 184 190 222 216 220 177 180 149 162 200 179 239 235 212 255
267 263 261 263 265 266 268 271 261 251 248 247 254 234 236 217 207 198 181 187 209 229 219 103 139 168 186 162 198 187 177 207 218 228 267 210 223 200 200 214 193 199 203 203 243 228 261
271 269 261 259 262 261 264 272 275 260 251 247 257 247 237 216 203 193 177 197 217 217 203 186 145 190 204 202 188 181 207 214 205 206 202 211 237 175 179 219 210 176 223 240 304 158 271
276 276 270 257 257 262 260 267 278 270 252 241 244 238 222 216 208 196 199 211 231 227 237 216 211 196 199 195 187 194 188 220 212 198 209 233 247 168 149 162 251 218 159 174 220 226 238
269 275 273 262 250 261 260 265 271 278 257 240 248 244 234 216 205 194 204 220 225 224 211 213 215 217 224 194 200 196 206 179 196 189 199 211 237 131 152 203 187 182 204 225 243 226 251
261 268 276 275 252 259 260 257 265 271 264 244 223 238 230 207 196 201 206 214 219 223 237 229 235 220 213 211 200 205 214 209 192 158 181 203 250 236 220 114 271 232 214 205 213 193 236
256 260 266 271 278 257 260 252 258 263 260 237 224 228 239 203 206 210 220 219 217 219 214 219 226 229 219 212 219 220 213 217 180 174 172 164 201 239 251 206 196 228 222 226 231 49 229
255 259 265 264 265 261 252 256 252 259 259 264 235 212 214 206 224 211 211 218 212 220 222 223 223 225 224 229 214 233 221 175 190 200 190 164 150 206 233 225 164 202 211 211 216 225 235
263 256 256 260 268 266 243 258 248 256 264 272 226 222 230 213 237 257 208 210 215 210 216 210 223 228 217 230 232 231 218 121 175 216 175 180 222 219 241 255 267 213 214 206 211 227 216
266 266 254 255 259 264 245 253 248 250 254 263 265 171 210 283 307 234 220 208 213 215 202 217 220 219 223 219 216 217 224 216 207 182 188 185 232 224 254 243 244 242 238 217 216 229 233
280 276 256 256 250 252 260 238 243 237 239 245 254 262 246 181 229 251 268 237 216 217 225 221 221 226 222 229 235 249 237 225 221 197 184 163 202 193 245 225 245 275 236 227 229 225 226
270 274 272 248 282 250 248 237 242 242 230 237 253 275 287 233 196 216 214 249 302 257 226 167 209 224 218 212 217 237 63 70 269 210 187 179 195 208 248 117 217 238 250 228 233 238 228
261 266 272 275 275 248 245 240 249 246 227 232 239 243 222 272 240 225 228 242 251 249 247 180 139 112 138 92 96 145 141 71 154 55 213 210 185 204 217 217 290 271 179 178 181 244 228
261 259 261 264 272 272 260 243 239 252 242 227 233 239 225 257 246 265 216 201 215 229 104 194 209 170 158 132 168 186 193 151 190 159 28 54 211 206 153 224 231 329 127 179 107 256 196
264 261 264 262 265 268 271 244 242 239 246 227 224 221 222 231 264 229 236 219 180 154 144 140 160 156 180 171 177 179 188 337 178 184 163 147 188 214 221 228 273 132 151 152 170 278 99
267 262 261 258 257 258 265 262 246 236 233 221 220 214 212 218 257 240 235 231 241 180 160 143 110 198 160 199 182 166 190 193 174 180 176 178 176 194 208 224 242 139 120 189 153 99 151
269 264 261 259 258 252 251 256 243 243 229 229 219 209 213 223 261 240 237 230 219 211 162 167 146 164 174 172 188 138 158 169 176 212 180 208 196 175 207 205 324 167 60 163 126 139 153